H1 CPF 2 NER 2021 2 6 9 037 01 glonass141 H2 1908801 9141 44850 2021 2 6 0 0 0 2021 2 9 23 45 0 900 1 1 0 0 0 1 H9 10 0 59251 0.00000 0 -24393704.519 -4157952.611 -6149301.547 10 0 59251 900.00000 0 -23446599.977 -3987869.071 -9185165.261 10 0 59251 1800.00000 0 -22127072.328 -3906224.581 -12042326.805 10 0 59251 2700.00000 0 -20469814.150 -3960913.196 -14665140.683 10 0 59251 3600.00000 0 -18520489.424 -4192480.944 -17002506.830 10 0 59251 4500.00000 0 -16333947.004 -4632183.855 -19008875.047 10 0 59251 5400.00000 0 -13972063.033 -5300446.437 -20645140.653 10 0 59251 6300.00000 0 -11501302.512 -6205787.478 -21879413.266 10 0 59251 7200.00000 0 -8990102.281 -7344259.893 -22687643.261 10 0 59251 8100.00000 0 -6506185.108 -8699429.542 -23054093.479 10 0 59251 9000.00000 0 -4113917.241 -10242895.008 -22971646.906 10 0 59251 9900.00000 0 -1871820.017 -11935327.194 -22441944.369 10 0 59251 10800.00000 0 169660.811 -13727985.628 -21475349.698 10 0 59251 11700.00000 0 1970035.289 -15564648.082 -20090743.252 10 0 59251 12600.00000 0 3500221.212 -17383872.468 -18315148.086 10 0 59251 13500.00000 0 4743508.308 -19121496.000 -16183196.393 10 0 59251 14400.00000 0 5695995.814 -20713266.432 -13736446.967 10 0 59251 15300.00000 0 6366486.887 -22097494.618 -11022567.486 10 0 59251 16200.00000 0 6775846.344 -23217616.724 -8094398.131 10 0 59251 17100.00000 0 6955850.907 -24024558.354 -5008915.306 10 0 59251 18000.00000 0 6947582.472 -24478801.220 -1826116.470 10 0 59251 18900.00000 0 6799434.154 -24552065.753 1392151.624 10 0 59251 19800.00000 0 6564815.045 -24228539.431 4583397.850 10 0 59251 20700.00000 0 6299651.985 -23505599.834 7685700.829 10 0 59251 21600.00000 0 6059794.868 -22394002.792 10638908.386 10 0 59251 22500.00000 0 5898435.678 -20917528.594 13385799.144 10 0 59251 23400.00000 0 5863650.339 -19112101.598 15873183.886 10 0 59251 24300.00000 0 5996166.994 -17024420.694 18052926.086 10 0 59251 25200.00000 0 6327454.327 -14710158.181 19882862.799 10 0 59251 26100.00000 0 6878209.941 -12231801.861 21327609.150 10 0 59251 27000.00000 0 7657311.937 -9656229.729 22359232.135 10 0 59251 27900.00000 0 8661277.548 -7052117.124 22957781.929 10 0 59251 28800.00000 0 9874251.656 -4487282.836 23111671.470 10 0 59251 29700.00000 0 11268526.251 -2026082.762 22817897.776 10 0 59251 30600.00000 0 12805570.072 273042.448 22082101.118 10 0 59251 31500.00000 0 14437526.665 2359765.570 20918460.861 10 0 59251 32400.00000 0 16109119.879 4193727.114 19349429.558 10 0 59251 33300.00000 0 17759888.816 5745970.032 17405309.517 10 0 59251 34200.00000 0 19326660.431 6999895.998 15123678.947 10 0 59251 35100.00000 0 20746157.735 7951704.134 12548677.410 10 0 59251 36000.00000 0 21957635.441 8610294.158 9730163.017 10 0 59251 36900.00000 0 22905433.085 8996638.114 6722756.496 10 0 59251 37800.00000 0 23541338.544 9142646.965 3584789.619 10 0 59251 38700.00000 0 23826662.132 9089579.654 377177.645 10 0 59251 39600.00000 0 23733933.089 8886061.578 -2837762.541 10 0 59251 40500.00000 0 23248145.736 8585796.253 -5997525.603 10 0 59251 41400.00000 0 22367501.251 8245067.255 -9040638.232 10 0 59251 42300.00000 0 21103612.206 7920136.712 -11907862.416 10 0 59251 43200.00000 0 19481159.648 7664651.366 -14543357.209 10 0 59251 44100.00000 0 17537015.723 7527167.149 -16895775.480 10 0 59251 45000.00000 0 15318867.607 7548898.310 -18919273.238 10 0 59251 45900.00000 0 12883399.682 7761787.682 -20574411.135 10 0 59251 46800.00000 0 10294109.625 8186981.052 -21828929.919 10 0 59251 47700.00000 0 7618849.673 8833771.315 -22658384.235 10 0 59251 48600.00000 0 4927195.846 9699058.098 -23046622.203 10 0 59251 49500.00000 0 2287755.015 10767346.561 -22986101.310 10 0 59251 50400.00000 0 -234477.603 12011286.081 -22478034.494 10 0 59251 51300.00000 0 -2580600.429 13392726.551 -21532363.737 10 0 59251 52200.00000 0 -4700023.751 14864248.082 -20167561.867 10 0 59251 53100.00000 0 -6552332.132 16371099.663 -18410266.707 10 0 59251 54000.00000 0 -8108714.247 17853465.046 -16294755.049 10 0 59251 54900.00000 0 -9352901.655 19248960.233 -13862267.028 10 0 59251 55800.00000 0 -10281578.821 20495257.014 -11160194.593 10 0 59251 56700.00000 0 -10904249.144 21532721.812 -8241150.412 10 0 59251 57600.00000 0 -11242564.724 22306958.401 -5161935.925 10 0 59251 58500.00000 0 -11329150.227 22771147.247 -1982429.412 10 0 59251 59400.00000 0 -11205972.476 22888082.939 1235583.611 10 0 59251 60300.00000 0 -10922326.529 22631824.191 4429614.343 10 0 59251 61200.00000 0 -10532524.794 21988887.332 7537684.994 10 0 59251 62100.00000 0 -10093387.992 20958933.608 10499529.550 10 0 59251 63000.00000 0 -9661644.688 19554921.945 13257757.746 10 0 59251 63900.00000 0 -9291349.451 17802721.268 15758959.837 10 0 59251 64800.00000 0 -9031428.541 15740199.101 17954731.489 10 0 59251 65700.00000 0 -8923456.070 13415824.559 19802599.859 10 0 59251 66600.00000 0 -8999753.696 10886843.941 21266834.000 10 0 59251 67500.00000 0 -9281893.021 8217104.335 22319125.235 10 0 59251 68400.00000 0 -9779663.083 5474614.692 22939125.535 10 0 59251 69300.00000 0 -10490545.908 2728944.485 23114834.568 10 0 59251 70200.00000 0 -11399722.165 48566.300 22842828.753 10 0 59251 71100.00000 0 -12480607.142 -2501749.210 22128328.317 10 0 59251 72000.00000 0 -13695895.463 -4863379.640 20985101.061 10 0 59251 72900.00000 0 -14999072.015 -6986038.642 19435204.233 10 0 59251 73800.00000 0 -16336327.327 -8829615.858 17508568.692 10 0 59251 74700.00000 0 -17648798.643 -10365593.520 15242432.231 10 0 59251 75600.00000 0 -18875044.215 -11577981.628 12680631.716 10 0 59251 76500.00000 0 -19953648.203 -12463733.082 9872766.326 10 0 59251 77400.00000 0 -20825847.502 -13032621.573 6873246.866 10 0 59251 78300.00000 0 -21438070.395 -13306587.326 3740248.531 10 0 59251 79200.00000 0 -21744279.879 -13318578.006 534586.664 10 0 59251 80100.00000 0 -21708022.213 -13110933.430 -2681462.910 10 0 59251 81000.00000 0 -21304093.090 -12733382.138 -5845376.034 10 0 59251 81900.00000 0 -20519749.618 -12240734.602 -8895600.900 10 0 59251 82800.00000 0 -19355415.265 -11690370.957 -11772762.733 10 0 59251 83700.00000 0 -17824846.224 -11139630.160 -14420828.172 10 0 59251 84600.00000 0 -15954750.467 -10643211.956 -16788205.756 10 0 59251 85500.00000 0 -13783874.018 -10250702.574 -18828760.056 10 0 59252 0.00000 0 -11361591.632 -10004329.923 -20502718.895 10 0 59252 900.00000 0 -8746059.772 -9937044.665 -21777455.498 10 0 59252 1800.00000 0 -6002009.369 -10071008.174 -22628129.444 10 0 59252 2700.00000 0 -3198269.511 -10416554.087 -23038174.142 10 0 59252 3600.00000 0 -405125.830 -10971665.831 -22999620.972 10 0 59252 4500.00000 0 2308376.265 -11721994.116 -22513253.811 10 0 59252 5400.00000 0 4877071.175 -12641413.234 -21588591.125 10 0 59252 6300.00000 0 7242145.654 -13693092.922 -20243696.136 10 0 59252 7200.00000 0 9353341.524 -14831040.398 -18504819.043 10 0 59252 8100.00000 0 11170797.361 -16002047.218 -16405878.577 10 0 59252 9000.00000 0 12666453.293 -17147958.457 -13987793.356 10 0 59252 9900.00000 0 13824961.446 -18208167.957 -11297676.577 10 0 59252 10800.00000 0 14644065.647 -19122233.903 -8387910.255 10 0 59252 11700.00000 0 15134436.410 -19832503.926 -5315117.658 10 0 59252 12600.00000 0 15318970.137 -20286638.525 -2139054.699 10 0 59252 13500.00000 0 15231584.263 -20439926.266 1078557.481 10 0 59252 14400.00000 0 14915561.075 -20257293.023 4275235.403 10 0 59252 15300.00000 0 14421511.794 -19714920.734 7388947.634 10 0 59252 16200.00000 0 13805048.291 -18801407.835 10359316.800 10 0 59252 17100.00000 0 13124261.594 -17518422.835 13128785.884 10 0 59252 18000.00000 0 12437114.121 -15880823.991 15643726.382 10 0 59252 18900.00000 0 11798855.636 -13916240.358 17855467.508 10 0 59252 19800.00000 0 11259571.403 -11664131.761 19721227.462 10 0 59252 20700.00000 0 10861965.049 -9174366.798 21204929.771 10 0 59252 21600.00000 0 10639468.428 -6505377.470 22277890.221 10 0 59252 22500.00000 0 10614757.011 -3721966.265 22919362.321 10 0 59252 23400.00000 0 10798732.331 -892855.575 23116931.847 10 0 59252 24300.00000 0 11190013.648 1911920.474 22866753.658 10 0 59252 25200.00000 0 11774960.055 4623675.430 22173626.680 10 0 59252 26100.00000 0 12528222.390 7177672.651 21050905.613 10 0 59252 27000.00000 0 13413802.572 9515564.056 19520250.666 10 0 59252 27900.00000 0 14386577.022 11587565.869 17611219.305 10 0 59252 28800.00000 0 15394221.525 13354282.172 15360706.820 10 0 59252 29700.00000 0 16379458.098 14788101.285 12812245.163 10 0 59252 30600.00000 0 17282530.606 15874107.375 10015172.240 10 0 59252 31500.00000 0 18043805.934 16610469.284 7023686.502 10 0 59252 32400.00000 0 18606391.659 17008290.331 3895804.065 10 0 59252 33300.00000 0 18918659.880 17090925.123 692237.826 10 0 59252 34200.00000 0 18936570.182 16892791.808 -2524779.952 10 0 59252 35100.00000 0 18625692.668 16457729.602 -5692708.704 10 0 59252 36000.00000 0 17962844.156 15836970.787 -8749920.381 10 0 59252 36900.00000 0 16937266.739 15086812.997 -11636905.485 10 0 59252 37800.00000 0 15551297.052 14266090.523 -14297440.010 10 0 59252 38700.00000 0 13820496.064 13433552.202 -16679689.663 10 0 59252 39600.00000 0 11773232.163 12645257.518 -18737228.797 10 0 59252 40500.00000 0 9449733.464 11952101.916 -20429953.439 10 0 59252 41400.00000 0 6900647.768 11397576.807 -21724869.956 10 0 59252 42300.00000 0 4185169.686 11015859.703 -22596743.450 10 0 59252 43200.00000 0 1368812.542 10830315.839 -23028593.015 10 0 59252 44100.00000 0 -1479082.182 10852474.943 -23012024.068 10 0 59252 45000.00000 0 -4287994.075 11081526.612 -22547391.306 10 0 59252 45900.00000 0 -6988921.311 11504355.556 -21643789.238 10 0 59252 46800.00000 0 -9517014.168 12096114.995 -20318870.695 10 0 59252 47700.00000 0 -11814034.888 12821313.621 -18598497.089 10 0 59252 48600.00000 0 -13830541.772 13635369.649 -16516227.594 10 0 59252 49500.00000 0 -15527707.093 14486565.728 -14112657.522 10 0 59252 50400.00000 0 -16878693.808 15318321.363 -11434619.297 10 0 59252 51300.00000 0 -17869534.875 16071686.186 -8534262.121 10 0 59252 52200.00000 0 -18499479.989 16687948.001 -5468028.833 10 0 59252 53100.00000 0 -18780797.006 17111244.842 -2295550.670 10 0 59252 54000.00000 0 -18738038.467 17291070.248 921517.926 10 0 59252 54900.00000 0 -18406806.005 17184565.649 4120701.106 10 0 59252 55800.00000 0 -17832066.688 16758503.151 7239916.113 10 0 59252 56700.00000 0 -17066093.676 15990875.126 10218676.528 10 0 59252 57600.00000 0 -16166119.171 14872023.765 12999260.878 10 0 59252 58500.00000 0 -15191799.438 13405263.492 15527824.152 10 0 59252 59400.00000 0 -14202598.799 11606970.210 17755431.288 10 0 59252 60300.00000 0 -13255202.516 9506133.640 19638993.575 10 0 59252 61200.00000 0 -12401066.683 7143391.326 21142090.864 10 0 59252 62100.00000 0 -11684207.047 4569583.950 22235665.020 10 0 59252 63000.00000 0 -11139318.461 1843891.173 22898572.422 10 0 59252 63900.00000 0 -10790302.706 -968375.692 23117985.932 10 0 59252 64800.00000 0 -10649265.441 -3798234.159 22889639.455 10 0 59252 65700.00000 0 -10716023.630 -6575643.944 22217910.797 10 0 59252 66600.00000 0 -10978143.839 -9232166.669 21115741.299 10 0 59252 67500.00000 0 -11411509.941 -11703563.476 19604393.397 10 0 59252 68400.00000 0 -11981397.012 -13932224.447 17713049.984 10 0 59252 69300.00000 0 -12644007.204 -15869330.220 15478262.208 10 0 59252 70200.00000 0 -13348404.171 -17476656.935 12943255.068 10 0 59252 71100.00000 0 -14038765.758 -18727949.920 10157102.810 10 0 59252 72000.00000 0 -14656861.046 -19609808.931 7173788.847 10 0 59252 72900.00000 0 -15144647.942 -20122047.851 4051167.317 10 0 59252 73800.00000 0 -15446881.914 -20277513.433 849845.612 10 0 59252 74700.00000 0 -15513625.367 -20101370.232 -2367990.734 10 0 59252 75600.00000 0 -15302550.818 -19629881.424 -5539787.982 10 0 59252 76500.00000 0 -14780939.218 -18908736.539 -8603845.089 10 0 59252 77400.00000 0 -13927287.326 -17990996.561 -11500521.053 10 0 59252 78300.00000 0 -12732454.322 -16934743.262 -14173404.358 10 0 59252 79200.00000 0 -11200297.220 -15800532.403 -16570420.828 10 0 59252 80100.00000 0 -9347766.343 -14648758.942 -18644857.269 10 0 59252 81000.00000 0 -7204454.977 -13537046.215 -20356280.168 10 0 59252 81900.00000 0 -4811620.512 -12517770.000 -21671330.870 10 0 59252 82800.00000 0 -2220716.891 -11635822.664 -22564381.214 10 0 59252 83700.00000 0 508501.140 -10926712.189 -23018036.575 10 0 59252 84600.00000 0 3310223.421 -10415076.552 -23023476.409 10 0 59252 85500.00000 0 6115085.902 -10113676.171 -22580625.639 10 0 59253 0.00000 0 8852824.179 -10022906.627 -21698153.744 10 0 59253 900.00000 0 11454968.526 -10130851.963 -20393301.520 10 0 59253 1800.00000 0 13857468.193 -10413874.996 -18691539.648 10 0 59253 2700.00000 0 16003135.226 -10837719.973 -16626065.375 10 0 59253 3600.00000 0 17843807.233 -11359078.856 -14237148.004 10 0 59253 4500.00000 0 19342138.406 -11927554.857 -11571336.165 10 0 59253 5400.00000 0 20472945.458 -12487938.844 -8680542.936 10 0 59253 6300.00000 0 21224053.237 -12982701.487 -5621027.199 10 0 59253 7200.00000 0 21596606.112 -13354594.905 -2452291.838 10 0 59253 8100.00000 0 21604833.835 -13549253.055 764079.097 10 0 59253 9000.00000 0 21275283.632 -13517680.447 3965621.013 10 0 59253 9900.00000 0 20645552.616 -13218523.775 7090203.218 10 0 59253 10800.00000 0 19762575.493 -12620030.399 10077233.285 10 0 59253 11700.00000 0 18680541.047 -11701611.221 12868827.915 10 0 59253 12600.00000 0 17458525.888 -10454942.212 15410927.732 10 0 59253 13500.00000 0 16157945.512 -8884558.399 17654335.030 10 0 59253 14400.00000 0 14839929.827 -7007915.532 19555655.306 10 0 59253 15300.00000 0 13562732.710 -4854916.523 21078125.366 10 0 59253 16200.00000 0 12379283.368 -2466921.987 22192313.317 10 0 59253 17100.00000 0 11334980.925 104714.769 22876678.131 10 0 59253 18000.00000 0 10465823.238 2800528.509 23117979.090 10 0 59253 18900.00000 0 9796947.010 5555161.963 22911528.086 10 0 59253 19800.00000 0 9341639.138 8299834.531 22261280.412 10 0 59253 20700.00000 0 9100859.920 10964959.135 21179762.345 10 0 59253 21600.00000 0 9063297.669 13482800.652 19687836.582 10 0 59253 22500.00000 0 9205952.439 15790067.290 17814309.238 10 0 59253 23400.00000 0 9495224.826 17830328.713 15595384.937 10 0 59253 24300.00000 0 9888464.753 19556161.419 13073979.179 10 0 59253 25200.00000 0 10335915.959 20930932.732 10298899.874 10 0 59253 26100.00000 0 10782975.115 21930149.085 7323912.631 10 0 59253 27000.00000 0 11172670.944 22542312.174 4206706.784 10 0 59253 27900.00000 0 11448258.980 22769246.632 1007781.379 10 0 59253 28800.00000 0 11555822.210 22625884.883 -2210727.571 10 0 59253 29700.00000 0 11446767.039 22139517.549 -5386255.817 10 0 59253 30600.00000 0 11080107.900 21348540.417 -8457031.798 10 0 59253 31500.00000 0 10424442.418 20300750.336 -11363285.209 10 0 59253 32400.00000 0 9459531.800 19051261.737 -14048418.913 10 0 59253 33300.00000 0 8177417.645 17660131.737 -16460120.415 10 0 59253 34200.00000 0 6583026.036 16189794.332 -18551390.209 10 0 59253 35100.00000 0 4694231.437 14702412.349 -20281466.173 10 0 59253 36000.00000 0 2541375.870 13257259.375 -21616625.287 10 0 59253 36900.00000 0 166262.081 11908242.521 -22530846.510 10 0 59253 37800.00000 0 -2379338.331 10701670.799 -23006321.623 10 0 59253 38700.00000 0 -5035600.320 9674363.270 -23033803.946 10 0 59253 39600.00000 0 -7736904.725 8852176.602 -22612788.143 10 0 59253 40500.00000 0 -10414347.581 8249013.657 -21751517.727 10 0 59253 41400.00000 0 -12998394.808 7866354.216 -20466820.325 10 0 59253 42300.00000 0 -15421571.514 7693326.755 -18783774.163 10 0 59253 43200.00000 0 -17621073.795 7707317.090 -16735212.593 10 0 59253 44100.00000 0 -19541194.161 7875086.964 -14361076.641 10 0 59253 45000.00000 0 -21135459.551 8154354.011 -11707628.706 10 0 59253 45900.00000 0 -22368393.174 8495764.965 -8826543.214 10 0 59253 46800.00000 0 -23216827.289 8845177.404 -5773892.549 10 0 59253 47700.00000 0 -23670713.066 9146152.334 -2609048.751 10 0 59253 48600.00000 0 -23733394.936 9342551.153 606476.940 10 0 59253 49500.00000 0 -23421339.622 9381126.367 3810233.511 10 0 59253 50400.00000 0 -22763332.814 9213995.993 6940044.597 10 0 59253 51300.00000 0 -21799178.908 8800896.780 9935213.958 10 0 59253 52200.00000 0 -20577959.801 8111121.066 12737698.575 10 0 59253 53100.00000 0 -19155926.977 7125055.625 15293226.693 10 0 59253 54000.00000 0 -17594116.134 5835257.931 17552339.813 10 0 59253 54900.00000 0 -15955784.522 4247024.580 19471339.287 10 0 59253 55800.00000 0 -14303778.154 2378428.028 21013120.281 10 0 59253 56700.00000 0 -12697938.295 259819.678 22147878.264 10 0 59253 57600.00000 0 -11192654.519 -2067180.718 22853675.597 10 0 59253 58500.00000 0 -9834665.250 -4551168.247 23116858.442 10 0 59253 59400.00000 0 -8661196.193 -7132848.348 22932316.810 10 0 59253 60300.00000 0 -7698512.946 -9747267.615 22303583.266 10 0 59253 61200.00000 0 -6960947.109 -12326289.028 21242768.486 10 0 59253 62100.00000 0 -6450435.673 -14801210.797 19770334.560 10 0 59253 63000.00000 0 -6156592.486 -17105421.885 17914709.648 10 0 59253 63900.00000 0 -6057308.720 -19176985.293 15711750.356 10 0 59253 64800.00000 0 -6119857.369 -20961042.888 13204060.907 10 0 59253 65700.00000 0 -6302455.897 -22411942.339 10440180.851 10 0 59253 66600.00000 0 -6556221.859 -23494997.598 7473655.746 10 0 59253 67500.00000 0 -6827439.611 -24187809.239 4362007.696 10 0 59253 68400.00000 0 -7060042.778 -24481088.835 1165624.835 10 0 59253 69300.00000 0 -7198207.577 -24378951.981 -2053409.023 10 0 59253 70200.00000 0 -7188946.913 -23898666.815 -5232521.901 10 0 59253 71100.00000 0 -6984594.606 -23069867.724 -8309874.571 10 0 59253 72000.00000 0 -6545073.339 -21933266.616 -11225570.336 10 0 59253 72900.00000 0 -5839848.746 -20538915.559 -13922829.348 10 0 59253 73800.00000 0 -4849485.096 -18944093.727 -16349103.627 10 0 59253 74700.00000 0 -3566734.884 -17210907.730 -18457110.016 10 0 59253 75600.00000 0 -1997114.316 -15403706.639 -20205760.168 10 0 59253 76500.00000 0 -158938.538 -13586420.884 -21560968.697 10 0 59253 77400.00000 0 1917186.549 -11819937.443 -22496323.218 10 0 59253 78300.00000 0 4189395.955 -10159622.022 -22993602.927 10 0 59253 79200.00000 0 6606078.647 -8653092.555 -23043135.489 10 0 59253 80100.00000 0 9107809.335 -7338337.524 -22643985.242 10 0 59253 81000.00000 0 11629618.689 -6242257.804 -21803969.209 10 0 59253 81900.00000 0 14103507.402 -5379692.591 -20539500.763 10 0 59253 82800.00000 0 16461099.034 -4752969.435 -18875264.253 10 0 59253 83700.00000 0 18636320.808 -4351995.997 -16843727.236 10 0 59253 84600.00000 0 20568000.370 -4154888.184 -14484500.157 10 0 59253 85500.00000 0 22202269.903 -4129106.595 -11843556.455 10 0 59254 0.00000 0 23494677.378 -4233051.617 -8972328.860 10 0 59254 900.00000 0 24411916.800 -4418048.088 -5926699.682 10 0 59254 1800.00000 0 24933106.344 -4630634.377 -2765906.495 10 0 59254 2700.00000 0 25050560.526 -4815057.227 448616.084 10 0 59254 3600.00000 0 24770026.894 -4915866.292 3654434.430 10 0 59254 4500.00000 0 24110377.387 -4880497.446 6789330.136 10 0 59254 5400.00000 0 23102769.496 -4661735.308 9792506.498 10 0 59254 6300.00000 0 21789313.420 -4219950.663 12605763.722 10 0 59254 7200.00000 0 20221302.372 -3525018.346 15174620.171 10 0 59254 8100.00000 0 18457081.045 -2557834.901 17449358.530 10 0 59254 9000.00000 0 16559641.814 -1311372.273 19385977.507 10 0 59254 9900.00000 0 14594049.168 208776.627 20947031.645 10 0 59254 10800.00000 0 12624799.340 1984383.606 22102344.321 10 0 59254 11700.00000 0 10713224.312 3985103.243 22829581.415 10 0 59254 12600.00000 0 8915047.181 6169502.524 23114675.670 10 0 59254 13500.00000 0 7278189.216 8486560.410 22952094.512 10 0 59254 14400.00000 0 5840918.388 10877576.515 22344946.693 10 0 59254 15300.00000 0 4630415.137 13278411.228 21304925.820 10 0 59254 16200.00000 0 3661813.910 15621966.070 19852091.563 10 0 59254 17100.00000 0 2937759.574 17840803.034 18014492.000 10 0 59254 18000.00000 0 2448496.764 19869795.469 15827633.329 10 0 59254 18900.00000 0 2172488.247 21648701.514 13333805.890 10 0 59254 19800.00000 0 2077536.475 23124553.619 10581278.068 10 0 59254 20700.00000 0 2122361.592 24253764.727 7623372.435 10 0 59254 21600.00000 0 2258569.795 25003862.933 4517440.825 10 0 59254 22500.00000 0 2432929.346 25354781.443 1323757.374 10 0 59254 23400.00000 0 2589858.204 25299648.770 -1895649.375 10 0 59254 24300.00000 0 2674017.810 24845044.964 -5078202.700 10 0 59254 25200.00000 0 2632902.615 24010711.926 -8161998.514 10 0 59254 26100.00000 0 2419314.715 22828728.960 -11087016.290 10 0 59254 27000.00000 0 1993617.420 21342187.413 -13796295.712 10 0 59254 27900.00000 0 1325670.678 19603419.567 -16237055.211 10 0 59254 28800.00000 0 396364.704 17671856.040 -18361729.531 10 0 59254 29700.00000 0 -801314.919 15611601.780 -20128905.286 10 0 59254 30600.00000 0 -2261737.494 13488832.685 -21504135.585 10 0 59254 31500.00000 0 -3966617.678 11369122.536 -22460617.222 10 0 59254 32400.00000 0 -5885548.059 9314812.721 -22979717.002 10 0 59254 33300.00000 0 -7977052.731 7382535.240 -23051336.755 10 0 59254 34200.00000 0 -10190118.506 5620992.913 -22674109.930 10 0 59254 35100.00000 0 -12466140.254 4069089.512 -21855426.068 10 0 59254 36000.00000 0 -14741199.219 2754487.602 -20611282.850 10 0 59254 36900.00000 0 -16948579.053 1692653.657 -18965968.873 10 0 59254 37800.00000 0 -19021414.219 886429.226 -16951583.644 10 0 59254 38700.00000 0 -20895359.849 326144.588 -14607404.467 10 0 59254 39600.00000 0 -22511171.100 -9731.635 -11979113.051 10 0 59254 40500.00000 0 -23817083.978 -153436.178 -9117897.416 10 0 59254 41400.00000 0 -24770898.038 -146298.857 -6079447.158 10 0 59254 42300.00000 0 -25341673.930 -36744.189 -2922862.398 10 0 59254 43200.00000 0 -25510975.243 122006.957 290501.660 10 0 59254 44100.00000 0 -25273603.338 274437.080 3498231.432 10 0 59254 45000.00000 0 -24637795.563 365326.337 6638069.016 10 0 59254 45900.00000 0 -23624879.578 342330.970 9649119.657 10 0 59254 46800.00000 0 -22268399.355 158436.464 12473029.028 10 0 59254 47700.00000 0 -20612750.754 -225818.257 15055107.659 10 0 59254 48600.00000 0 -18711384.468 -840439.294 17345381.228 10 0 59254 49500.00000 0 -16624651.988 -1704478.802 19299547.288 10 0 59254 50400.00000 0 -14417384.684 -2825001.329 20879820.903 10 0 59254 51300.00000 0 -12156306.426 -4196558.861 22055654.138 10 0 59254 52200.00000 0 -9907386.688 -5801196.798 22804316.768 10 0 59254 53100.00000 0 -7733243.121 -7608991.157 23111328.128 10 0 59254 54000.00000 0 -5690700.098 -9579095.560 22970732.727 10 0 59254 54900.00000 0 -3828603.088 -11661255.688 22385214.860 10 0 59254 55800.00000 0 -2185978.200 -13797729.680 21366050.153 10 0 59254 56700.00000 0 -790611.992 -15925536.326 19932894.713 10 0 59254 57600.00000 0 341890.517 -17978939.263 18113415.164 10 0 59254 58500.00000 0 1208531.127 -19892065.331 15942765.715 10 0 59254 59400.00000 0 1818809.788 -21601549.356 13462921.030 10 0 59254 60300.00000 0 2194086.710 -23049095.972 10721876.353 10 0 59254 61200.00000 0 2366441.862 -24183851.899 7772729.106 10 0 59254 62100.00000 0 2377079.625 -24964489.388 4672658.549 10 0 59254 63000.00000 0 2274345.565 -25360913.012 1481822.392 10 0 59254 63900.00000 0 2111438.868 -25355517.222 -1737808.612 10 0 59254 64800.00000 0 1943917.259 -24943940.644 -4923655.577 10 0 59254 65700.00000 0 1827100.417 -24135284.014 -8013752.193 10 0 59254 66600.00000 0 1813482.566 -22951781.223 -10947956.756 10 0 59254 67500.00000 0 1950264.999 -21427936.119 -13669131.137 10 0 59254 68400.00000 0 2277114.389 -19609160.345 -16124262.759 10 0 59254 69300.00000 0 2824243.426 -17549968.879 -18265506.695 10 0 59254 70200.00000 0 3610896.633 -15311808.709 -20051126.728 10 0 59254 71100.00000 0 4644307.110 -12960611.669 -21446316.327 10 0 59254 72000.00000 0 5919169.802 -10564174.251 -22423882.943 10 0 59254 72900.00000 0 7417654.974 -8189474.363 -22964782.009 10 0 59254 73800.00000 0 9109962.553 -5900037.522 -23058490.075 10 0 59254 74700.00000 0 10955394.935 -3753462.841 -22703209.780 10 0 59254 75600.00000 0 12903903.895 -1799212.087 -21905902.814 10 0 59254 76500.00000 0 14898047.071 -76753.825 -20682150.375 10 0 59254 77400.00000 0 16875272.061 1385860.440 -19055844.119 10 0 59254 78300.00000 0 18770432.298 2572929.685 -17058713.911 10 0 59254 79200.00000 0 20518429.061 3481508.736 -14729701.923 10 0 59254 80100.00000 0 22056868.493 4121270.313 -12114195.750 10 0 59254 81000.00000 0 23328621.976 4513831.537 -9263136.000 10 0 59254 81900.00000 0 24284182.312 4691575.384 -6232016.314 10 0 59254 82800.00000 0 24883716.798 4696018.770 -3079796.051 10 0 59254 83700.00000 0 25098731.271 4575798.126 132252.523 10 0 59254 84600.00000 0 24913275.765 4384359.266 3341739.455 10 0 59254 85500.00000 0 24324641.875 4177450.577 6486370.842 99